Tracking 20621 objects as of 30-Mar-2020
HD Live streaming from Space Station
objects crossing your sky now

HIBER-2

Track HIBER-2 now!
10-day predictions


NORAD ID: 43774
Int'l Code: 2018-099S
Perigee: 579.2 km
Apogee: 599.3 km
Inclination: 97.7 °
Period: 96.3 minutes
Semi major axis: 6960 km
RCS: Unknown
Launch date: December 3, 2018
Source: Netherlands (NETH)
Launch site: AIR FORCE WESTERN TEST RANGE (AFWTR)
aabbcc
Your satellite tracking list
Your tracking list is empty




NASA's NSSDC Master Catalog

Two Line Element Set (TLE):
1 43774U 18099S   20090.21586589  .00000761  00000-0  74568-4 0  9995
2 43774  97.7158 163.2514 0014438  93.1313 267.1560 14.95093936 72078
Source of the keplerian elements: AFSPC